Back to catalog

STARLINK-37925

AliveCommunicationsVLEO
NORAD 69962·PAYLOAD·🇺🇸 United States

Launched Jul 9, 2026 from Cape Canaveral Space Force Station

Loading…

Next Passes (next 24 hours)

TLE

FreshSource: CelesTrak SupGP

Epoch: Sep 14, 2026, 15:22 UTC

1 69962C 26157V   26257.64076389 -.00029206  00000+0 -86336-3 0  2574
2 69962  53.1587   1.2193 0001205  80.0295 211.3884 15.34389155    13

Track STARLINK-37925 in real time with AllMySat

Download on the App Store